Boulder City, NV

12:50 AM PDT on March 25, 2017 (GMT -0700)
Boulder City

Weather History for KBVU - January, 2013

Change the Weather History Date:

Thursday, January 24, 2013

  Actual Average (KLAS) Record (KLAS)
Temperature  
Mean Temperature 50 °F -  
Max Temperature 55 °F 58 °F 75 °F (1948)
Min Temperature 46 °F 35 °F 15 °F (1937)
Degree Days  
Heating Degree Days 14    
Moisture  
Dew Point 35 °F    
Average Humidity 54    
Maximum Humidity 82    
Minimum Humidity 30    
Precipitation  
Precipitation 0.02 in - - ()
Sea Level Pressure  
Sea Level Pressure 30.21 in    
Wind  
Wind Speed 1 mph (NNE)    
Max Wind Speed 9 mph    
Max Gust Speed -    
Visibility 10 miles    
Events      
Averages and records for this station are not official NWS values.
T = Trace of Precipitation, MM = Missing Value Source: NWS Daily Summary

Daily Weather History Graph

Daily Weather History Graph

Search for Another Location

Airport or City:

Trip Planner

Search our weather history database for the weather conditions in past years. The results will help you decide how hot, cold, wet, or windy it might be!

Date:

Astronomy

Jan. 24, 2013 Rise Set
Actual Time 6:45 AM PST 4:58 PM PST
Civil Twilight 6:17 AM PST 5:25 PM PST
Nautical Twilight 5:46 AM PST 5:56 PM PST
Astronomical Twilight 5:16 AM PST 6:27 PM PST
Moon 3:05 PM PST (1/24) 4:44 AM PST (1/24)
Length of Visible Light 11h 08m
Length of Day
10h 13m
Waxing Gibbous, 95% of the Moon is Illuminated
Jan 24
Waxing Gibbous
Jan 26
Full
Feb 3
Last Quarter
Feb 9
New
Feb 17
First Quarter

Hourly Weather History & Observations

Time (PST) Temp. Dew Point Humidity Pressure Visibility Wind Dir Wind Speed Gust Speed Precip Events Conditions
12:15 AM 50.0 °F 24.8 °F 37% 30.15 in 10.0 mi Calm Calm - N/A   Unknown
12:35 AM 50.0 °F 24.8 °F 37% 30.15 in 10.0 mi Calm Calm - N/A   Unknown
12:55 AM 50.0 °F 24.8 °F 37% 30.16 in 10.0 mi Calm Calm - N/A   Unknown
1:15 AM 50.0 °F 23.0 °F 35% 30.17 in 10.0 mi Calm Calm - N/A   Unknown
1:35 AM 50.0 °F 24.8 °F 37% 30.17 in 10.0 mi Calm Calm - N/A   Unknown
1:55 AM 50.0 °F 24.8 °F 37% 30.17 in 10.0 mi Calm Calm - N/A   Unknown
2:15 AM 51.8 °F 23.0 °F 33% 30.16 in 10.0 mi Calm Calm - N/A   Unknown
2:35 AM 51.8 °F 24.8 °F 35% 30.16 in 10.0 mi Calm Calm - N/A   Unknown
2:55 AM 53.6 °F 23.0 °F 30% 30.16 in 10.0 mi Calm Calm - N/A   Unknown
3:15 AM 53.6 °F 23.0 °F 30% 30.15 in 10.0 mi NNE 5.8 mph - N/A   Unknown
3:35 AM 53.6 °F 24.8 °F 33% 30.16 in 10.0 mi NNE 6.9 mph - N/A   Unknown
3:55 AM 53.6 °F 24.8 °F 33% 30.15 in 10.0 mi East 5.8 mph - N/A   Unknown
4:15 AM 53.6 °F 24.8 °F 33% 30.15 in 10.0 mi Calm Calm - N/A   Unknown
4:35 AM 51.8 °F 26.6 °F 38% 30.13 in 10.0 mi Calm Calm - N/A   Unknown
4:55 AM 51.8 °F 24.8 °F 35% 30.15 in 10.0 mi Calm Calm - N/A   Unknown
5:15 AM 50.0 °F 26.6 °F 40% 30.15 in 10.0 mi Calm Calm - N/A   Unknown
5:35 AM 50.0 °F 24.8 °F 37% 30.14 in 10.0 mi NNW 4.6 mph - N/A   Unknown
5:55 AM 51.8 °F 26.6 °F 38% 30.14 in 10.0 mi Calm Calm - N/A   Unknown
6:15 AM 53.6 °F 26.6 °F 35% 30.14 in 10.0 mi Calm Calm - N/A   Unknown
6:35 AM 46.4 °F 28.4 °F 50% 30.16 in 10.0 mi Calm Calm - N/A   Unknown
6:55 AM 46.4 °F 28.4 °F 50% 30.18 in 10.0 mi Calm Calm - N/A   Unknown
7:15 AM 46.4 °F 30.2 °F 53% 30.17 in 10.0 mi Calm Calm - N/A   Unknown
7:35 AM 48.2 °F 30.2 °F 50% 30.19 in 10.0 mi Calm Calm - N/A   Unknown
7:55 AM 48.2 °F 33.8 °F 58% 30.20 in 10.0 mi Calm Calm - N/A   Unknown
8:15 AM 48.2 °F 32.0 °F 54% 30.20 in 10.0 mi Calm Calm - N/A   Unknown
8:35 AM 50.0 °F 32.0 °F 50% 30.21 in 10.0 mi Calm Calm - N/A   Unknown
8:55 AM 50.0 °F 32.0 °F 50% 30.21 in 10.0 mi Calm Calm - N/A   Unknown
9:15 AM 51.8 °F 30.2 °F 44% 30.22 in 10.0 mi Calm Calm - N/A   Unknown
9:35 AM 53.6 °F 32.0 °F 44% 30.23 in 10.0 mi North 6.9 mph - N/A   Unknown
9:55 AM 51.8 °F 37.4 °F 58% 30.24 in 10.0 mi Calm Calm - N/A   Unknown
10:15 AM 53.6 °F 35.6 °F 51% 30.25 in 10.0 mi Calm Calm - N/A   Unknown
10:35 AM 53.6 °F 35.6 °F 51% 30.25 in 10.0 mi West 3.5 mph - N/A   Unknown
10:55 AM 53.6 °F 35.6 °F 51% 30.24 in 10.0 mi Calm Calm - N/A   Unknown
11:15 AM 55.4 °F 32.0 °F 41% 30.24 in 10.0 mi Calm Calm - N/A   Unknown
11:35 AM 55.4 °F 30.2 °F 38% 30.23 in 10.0 mi Calm Calm - N/A   Unknown
11:55 AM 55.4 °F 32.0 °F 41% 30.23 in 10.0 mi Calm Calm - N/A   Unknown
12:15 PM 55.4 °F 30.2 °F 38% 30.23 in 10.0 mi Calm Calm - N/A   Unknown
12:35 PM 55.4 °F 32.0 °F 41% 30.22 in 8.0 mi Calm Calm - N/A   Unknown
12:55 PM 53.6 °F 37.4 °F 54% 30.22 in 9.0 mi Calm Calm - 0.01 in   Unknown
1:15 PM 53.6 °F 39.2 °F 58% 30.22 in 9.0 mi Calm Calm - 0.01 in   Unknown
1:35 PM 53.6 °F 37.4 °F 54% 30.22 in 10.0 mi Calm Calm - 0.01 in   Unknown
1:55 PM 55.4 °F 39.2 °F 54% 30.22 in 10.0 mi Calm Calm - 0.01 in   Unknown
2:15 PM 55.4 °F 39.2 °F 54% 30.22 in 10.0 mi Calm Calm - N/A   Unknown
2:35 PM 55.4 °F 42.8 °F 63% 30.22 in 10.0 mi Calm Calm - N/A   Unknown
2:55 PM 55.4 °F 42.8 °F 63% 30.21 in 10.0 mi Calm Calm - N/A   Unknown
3:15 PM 55.4 °F 42.8 °F 63% 30.21 in 10.0 mi Calm Calm - N/A   Unknown
3:35 PM 55.4 °F 44.6 °F 67% 30.21 in 10.0 mi Calm Calm - N/A   Unknown
3:55 PM 55.4 °F 44.6 °F 67% 30.21 in 10.0 mi NNE 4.6 mph - N/A   Unknown
4:15 PM 55.4 °F 44.6 °F 67% 30.21 in 10.0 mi NNE 5.8 mph - N/A   Unknown
4:35 PM 55.4 °F 44.6 °F 67% 30.21 in 10.0 mi NNE 4.6 mph - N/A   Unknown
4:55 PM 53.6 °F 44.6 °F 72% 30.20 in 10.0 mi NE 9.2 mph - N/A   Unknown
5:15 PM 53.6 °F 44.6 °F 72% 30.20 in 10.0 mi NNE 8.1 mph - N/A   Unknown
5:35 PM 53.6 °F 42.8 °F 67% 30.23 in 10.0 mi NNW 5.8 mph - N/A   Unknown
5:55 PM 53.6 °F 42.8 °F 67% 30.24 in 10.0 mi NNW 6.9 mph - N/A   Unknown
6:15 PM 53.6 °F 42.8 °F 67% 30.24 in 10.0 mi North 6.9 mph - N/A   Unknown
6:35 PM 53.6 °F 42.8 °F 67% 30.24 in 10.0 mi NNE 5.8 mph - N/A   Unknown
6:55 PM 53.6 °F 42.8 °F 67% 30.25 in 10.0 mi NNE 4.6 mph - N/A   Unknown
7:15 PM 53.6 °F 44.6 °F 72% 30.25 in 10.0 mi Calm Calm - N/A   Unknown
7:35 PM 51.8 °F 41.0 °F 67% 30.25 in 10.0 mi Calm Calm - N/A   Unknown
7:55 PM 51.8 °F 44.6 °F 76% 30.24 in 10.0 mi Calm Calm - N/A   Unknown
8:15 PM 50.0 °F 44.6 °F 82% 30.24 in 10.0 mi Calm Calm - N/A   Unknown
8:35 PM 53.6 °F 41.0 °F 62% 30.25 in 10.0 mi Calm Calm - N/A   Unknown
8:55 PM 51.8 °F 41.0 °F 67% 30.26 in 10.0 mi Calm Calm - N/A   Unknown
9:15 PM 51.8 °F 41.0 °F 67% 30.26 in 10.0 mi Calm Calm - N/A   Unknown
9:35 PM 53.6 °F 41.0 °F 62% 30.27 in 10.0 mi Calm Calm - N/A   Unknown
9:55 PM 51.8 °F 41.0 °F 67% 30.27 in 10.0 mi Calm Calm - N/A   Unknown
10:15 PM 51.8 °F 41.0 °F 67% 30.27 in 10.0 mi Calm Calm - N/A   Unknown
10:35 PM 50.0 °F 41.0 °F 71% 30.27 in 10.0 mi Calm Calm - N/A   Unknown
10:55 PM 50.0 °F 42.8 °F 76% 30.27 in 10.0 mi Calm Calm - N/A   Unknown
11:15 PM 50.0 °F 42.8 °F 76% 30.26 in 10.0 mi Calm Calm - N/A   Unknown
11:35 PM 48.2 °F 42.8 °F 82% 30.25 in 10.0 mi Calm Calm - N/A   Unknown
11:55 PM 48.2 °F 41.0 °F 76% 30.25 in 10.0 mi Calm Calm - N/A   Unknown